Location: Pittman
(37.9557°N, 80.9209°W)
Time: 13:57:03
(UTC+00:00)

Envisat - Pass Details

Date: 21 April 2026
Orbit: 761 x 762 km, 98.4° (Epoch: 15 May)

Event Time Altitude Azimuth Distance (km) Brightness Sun altitude
Rises 09:12:33 0° 356° (N) 3,230 6.6 -16.7°
Reaches altitude 10° 09:15:27 10° 339° (NNW) 2,300 5.6 -16.2°
Maximum altitude 09:18:55 19° 295° (WNW) 1,755 4.5 -15.6°
Enters shadow 09:20:06 18° 277° (W) 1,825 4.5 -15.4°
